Regional Weather Roundup
Issued by NWS

Home | Current Version | Previous Version | Text Only | Print | Product List | Glossary On
Versions: 1 2 3 4 5 6 7 8 9 10 11 12 13 14 15 16 17 18 19 20 21 22 23 24 25 26 27
000
ASUS45 KPSR 290810
RWRAZ

ARIZONA HOURLY REGIONAL WEATHER ROUNDUP
NATIONAL WEATHER SERVICE PHOENIX AZ
100 AM MST MON AUG 29 2016

NOTE: FAIR INDICATES FEW OR NO CLOUDS BELOW 12,000 FEET WITH NO
SIGNIFICANT WEATHER AND/OR OBSTRUCTIONS TO VISIBILITY.

AZZ001>003-036-290900-
NORTHWEST ARIZONA

CITY           SKY/WX    TMP DP  RH WIND       PRES   REMARKS
BULLHEAD CITY  CLEAR     86  48  26 CALM      29.89F
KINGMAN        CLEAR     66  55  67 SE5       30.11F
$$

AZZ004>008-015-016-018-290900-
NORTH CENTRAL ARIZONA

CITY           SKY/WX    TMP DP  RH WIND       PRES   REMARKS
GRAND CANYON   CLEAR     48  45  89 CALM      30.34S
PRESCOTT       CLEAR     58  51  78 S5        30.22S
FLAGSTAFF      CLEAR     45  43  93 CALM      30.35S
PAYSON         CLEAR     63  41  45 N3        30.24S
PAGE           CLEAR     71  44  37 SW3       30.16S
$$

AZZ009>014-017-290900-
NORTHEAST ARIZONA

CITY           SKY/WX    TMP DP  RH WIND       PRES   REMARKS
WINSLOW        CLEAR     57  50  77 CALM      30.22S
SAINT JOHNS    CLEAR     55  46  71 CALM      30.25S
SHOW LOW       CLEAR     46  39  76 CALM      30.30F
$$

AZZ023-290900-
GREATER PHOENIX AREA

CITY           SKY/WX    TMP DP  RH WIND       PRES   REMARKS
PHOENIX        CLEAR     86  52  30 CALM      29.89S
BUCKEYE        CLEAR     81  46  30 N7        29.91S
LUKE AFB       CLEAR     82  55  38 NW7       29.89S
DEER VALLEY    CLEAR     82  51  34 CALM      29.92S
SCOTTSDALE     CLEAR     83  51  33 NW6       29.93F
MESA-GATEWAY   CLEAR     79  46  31 CALM      29.92F
$$

AZZ027-028-290900-
SOUTHWEST MARICOPA COUNTY AND PINAL COUNTY

CITY           SKY/WX    TMP DP  RH WIND       PRES   REMARKS
CASA GRANDE    CLEAR     81  45  28 NE5       29.94S
GILA BEND      FAIR      83  39  21 SE7       29.87S
$$

AZZ503-504-507>509-290900-
SOUTHEAST ARIZONA

CITY           SKY/WX    TMP DP  RH WIND       PRES   REMARKS
TUCSON         CLEAR     74  42  31 SE3       30.02F
DAVIS-MONTHAN  CLEAR     70  46  41 SE7       30.00F
NOGALES        CLEAR     62  41  46 CALM      30.10S
SIERRA VISTA   CLEAR     67  38  34 SW5       30.16F
DOUGLAS        CLEAR     60  43  53 N8        30.11F
SAFFORD        CLEAR     78  40  25 N3        30.03S
$$

AZZ020-021-025-026-031-290900-
SOUTHWEST ARIZONA

CITY           SKY/WX    TMP DP  RH WIND       PRES   REMARKS
YUMA           CLEAR     88  46  23 CALM      29.84S
$$

CAZ031-033-041-043-047-048-061-290900-
SOUTHERN CALIFORNIA

CITY           SKY/WX    TMP DP  RH WIND       PRES   REMARKS
DOWNTOWN L.A.  CLEAR     67  61  81 CALM      29.97S
L.A. AIRPORT   CLEAR     68  60  75 SE6       29.97F
SAN DIEGO      PTCLDY    70  65  84 CALM      30.00S
BURBANK        CLEAR     69  58  67 E3        29.98S
ONTARIO        CLEAR     71  54  54 CALM      29.99F
RIVERSIDE      CLEAR     72  54  53 CALM      29.99S
PALM SPRINGS   CLEAR     86  56  35 CALM      29.90R
EL CENTRO NAS  CLEAR     88  47  24 W5        29.85R
IMPERIAL       CLEAR     87  51  28 CALM      29.83R
BLYTHE         CLEAR     87  49  26 SW3       29.85S
NEEDLES        CLEAR     88  55  32 SW45G56   29.90S
$$

NVZ020-UTZ003-290900-
SOUTHERN NEVADA-UTAH

CITY           SKY/WX    TMP DP  RH WIND       PRES   REMARKS
LAS VEGAS      CLEAR     83  46  27 CALM      29.98F
SALT LAKE CITY PTCLDY    69  36  29 S5        30.16S
$$

NMZ009-TXZ055-290900-
NEW MEXICO-WEST TEXAS

CITY           SKY/WX    TMP DP  RH WIND       PRES   REMARKS
ALBUQUERQUE    CLOUDY    65  44  46 NE5       30.24S
EL PASO        MOCLDY    71  59  65 CALM      30.12S
$$


........................KEY........................
SKY/WX - SKY CONDITION/WEATHER
TMP    - TEMPERATURE IN FAHRENHEIT
DP     - DEW POINT IN FAHRENHEIT
RH     - RELATIVE HUMIDITY IN PERCENT
WIND   - DIRECTION AND SPEED IN MILES PER HOUR (MPH)
VRB    - VARIABLE WIND DIRECTION
PRES   - MEAN SEA LEVEL PRESSURE IN INCHES OF MERCURY
         F - FALLING PRESSURE   R - RISING PRESSURE
         S - STEADY PRESSURE
VSB    - VISIBILITY IN MILES
HX     - HEAT INDEX IN FAHRENHEIT
WCI    - WIND CHILL INDEX IN FAHRENHEIT
TC     - TEMPERATURE IN CELSIUS WHICH IS ALSO KNOWN AS
         TEMPERATURE IN CENTIGRADE
AFB    - AIR FORCE BASE
         LUKE AFB IS LUKE AIR FORCE BASE
         DAVIS-MONTHAN IS DAVIS-MONTHAN AIR FORCE BASE
NAS    - NAVAL AIR STATION
         EL CENTRO NAS IS EL CENTRO NAVAL AIR STATION
N/A    - NOT AVAILABLE





USA.gov is the U.S. government's official web portal to all federal, state and local government web resources and services.